Location: Bazinghen
(50.8246°N, 1.6616°E)
Time: 08:03:21
(UTC+00:00)

ATLAS 2AS CENTAUR R/B - Pass Details

Date: 09 April 2020
Orbit: 931 x 1280 km, 63.7° (Epoch: 30 May)

Event Time Altitude Azimuth Distance (km) Brightness Sun altitude
Rises 19:55:07 0° 315° (NW) 4,180 7.4 -11.9°
Reaches altitude 10° 19:58:07 10° 309° (NW) 3,171 6.6 -12.3°
Maximum altitude 20:05:07 42° 243° (WSW) 1,595 3.9 -13.3°
Drops below altitude 10° 20:11:35 10° 175° (S) 2,923 4.6 -14.1°
Enters shadow 20:13:04 - 171° (S) 3,415 5.0 -14.3°
